User: anonymous   Login
Location: Maiden
(35.5760°N, 81.2120°W)
Time: 13:30:43
(UTC-04:00)
Language:

Cosmos 2151 - Orbit

View from above orbital plane
View from above orbital plane
View from above satellite
View from above satellite

Ground track
Ground track

The orbit data is extracted from the following two-line orbital elements,

1 21422U 91042A   15125.50378960  .00000921  00000-0  90250-4 0  9991
2 21422 082.5005 262.3573 0014333 003.0739 357.0565 14.91106852293177
Epoch (UTC): 05 May 2015 12:05:27
Eccentricity: 0.0014333
inclination: 82.5005°
perigee height: 584 km
apogee height: 604 km
right ascension of ascending node: 262.3573°
argument of perigee: 3.0739°
revolutions per day: 14.91106852
mean anomaly at epoch: 357.0565°
orbit number at epoch: 29317

The dashed part of the orbit path shows where the satellite is in the earth's shadow,  

DLR